map of YEI home
Great Circle Mapper logo
YEI - Airport
Location
City:  Bursa, Turkey
Name:Yenisehir
ICAO / IATA:LTBR / YEI

Details
Type:Airport (Aerodrome, Airfield)
Use:Public/Civil, Military
Latitude:4015'19"N (40.255208)
Longitude:2933'45"E (29.562569)
Datum:WGS 1984
Elevation:764 ft (233 m)
Runways:2
Longest:9818 × 148 ft (2993 × 45 m), paved

Time
Time Zone:UTC+2 (DST+3)
Local Time:

Weather
METAR:LTBR 012250Z 33003KT 9999 FEW035 20/17 Q1009 NOSIG RMK RWY07 01001KT
TAF:LTBR 012240Z 0200/0224 VRB02KT 9999 SCT035 PROB30
TEMPO 0203/0205 4000 BR
BECMG 0209/0212 34012KT PROB40
TEMPO 0211/0215 -TSRA FEW027CB BKN030
BECMG 0216/0218 VRB02KT CAVOK

Related Locations
Nearby:
Farthest:NTAV: 11291 mi / 18170 km
Raivavae, Tubuai Islands, Austral Islands, PF

Find:

   beyond  
but within

Other Information
Maps:
NOTAMs:
Links:
Sources:

  
flag of Turkey   

Sectional Chart

Flight Planning
at skyvector.com

Satellite Image

Google Maps Satellite View

 

Copyright © 2004-2014 Karl L. Swartz. All rights reserved.
The Great Circle Mapper name and logo are trademarks of the Great Circle Mapper.
All other trademarks mentioned herein belong to their respective owners.
Please see credits for attibutions and further copyright information.

  Follow gcmap on Facebook Follow gcmap on Twitter

hCard Microformat

Geo Microformat